Voltar ao catálogo

STARLINK-5109

AtivoComunicaçõesVLEO
NORAD 54002·PAYLOAD·🇺🇸 United States

Lançado Oct 5, 2022 de Vandenberg Space Force Base

Loading…

Próximas Passagens (próximas 24 horas)

TLE

AtualizadoSource: CelesTrak SupGP

Época: Sep 14, 2026, 20:47 UTC

1 54002C 22125AQ  26257.86645833  .00044930  00000+0  14452-2 0  2572
2 54002  53.1603  60.0026 0001256  79.9855 354.0765 15.31670825    11

Acompanhe STARLINK-5109 em tempo real com AllMySat

Download on the App Store